index,update,raceTime,cpIndex,wp_frac,percentComplete,value_m,avgspeed_mph,crossTrack_ft,status,checkpoint,checkpointTime,nextCheckPoint,nextCheckpointTime,rptTime,rptTimeDelta_s, rptLat_deg, rptLon_deg, rptSpeed_mph, atCp,nextCpIndex,wpIndex,pose_lat_deg,pose_lon_deg,selspeed_mph,maxspeed_mph,routeDistance_mile,distance_mile,distanceFromStart_mile,maxDistanceFromStart_mile,maxTotalDistanceFromStart_mile,errors,file
0,False,'00:00:00,0,0.134091779564004,0,307.239439931536,-2.23693578365991E-12,59.3764224881303,DNS,St Vital Park_DNS,9/24/2022 9:05:00 AM,Manitoba Canoe & Kayak Center,12/31/1969 6:00:00 PM,9/24/2022 9:05:00 AM,0,49.830515,-97.137368,0,True,1,2,49.830515,-97.137368,-2.23693578365991E-12,-2.23693578365991E-12,0,0,0,0,0,,0044
2,False,'00:00:00,0,0.134091779564004,0,307.239439931536,-2.23693578365991E-12,59.3764224881303,DNS,St Vital Park_DNS,9/24/2022 9:05:00 AM,Manitoba Canoe & Kayak Center,12/31/1969 6:00:00 PM,9/24/2022 8:52:03 AM,-777,49.8307,-97.1374,0.146641143220024,True,1,2,49.830515,-97.137368,-2.23693578365991E-12,-2.23693578365991E-12,0,0,0,0,0,old Position(2),0044
4,False,'00:00:00,0,0.134091779564004,0,307.239439931536,-2.23693578365991E-12,59.3764224881303,DNS,St Vital Park_DNS,9/24/2022 9:05:00 AM,Manitoba Canoe & Kayak Center,12/31/1969 6:00:00 PM,9/24/2022 9:00:00 AM,-300,49.8305,-97.1374,0.3412548641922,True,1,2,49.830515,-97.137368,-2.23693578365991E-12,-2.23693578365991E-12,0,0,0,0,0,old Position(2),0044
6,False,'00:00:00,0,0.134091779564004,0,307.239439931536,-2.23693578365991E-12,59.3764224881303,DNS,St Vital Park_DNS,9/24/2022 9:05:00 AM,Manitoba Canoe & Kayak Center,12/31/1969 6:00:00 PM,9/24/2022 9:03:44 AM,-76,49.8312,-97.1375,0.0965594151338181,True,1,2,49.830515,-97.137368,-2.23693578365991E-12,-2.23693578365991E-12,0,0,0,0,0,old Position(2),0044
8,False,'00:04:44,0.0803733799279156,0.268166050526245,1.87196409081926,1152.1406038619,7.89052518345661,-177.993117239268,OUT,St Vital Park_OUT,9/24/2022 9:05:00 AM,Manitoba Canoe & Kayak Center,9/24/2022 9:55:24 AM,9/24/2022 9:09:44 AM,284,49.8354,-97.132,5.74519704964807,False,1,11,49.8354,-97.132,7.89052518345661,7.89052518345661,0.52499724355412,0.424056753305499,0,0,0,,0044
10,False,'00:10:44,0.183729884148205,0.554979008304716,4.27922461198331,2238.64500113641,7.79529011015834,101.474637325004,OUT,St Vital Park_OUT,9/24/2022 9:05:00 AM,Manitoba Canoe & Kayak Center,9/24/2022 9:56:46 AM,9/24/2022 9:15:44 AM,644,49.8431,-97.1352,5.30001527523383,False,1,15,49.8431,-97.1352,6.92911406434321,7.89052518345661,1.20011977625969,1.00976470386229,0,0,0,,0044
12,False,'00:16:44,0.289137450532052,0.28525276615541,6.73425610808536,3346.710577135,7.71909596710511,-73.8649083984882,OUT,St Vital Park_OUT,9/24/2022 9:05:00 AM,Manitoba Canoe & Kayak Center,9/24/2022 9:57:49 AM,9/24/2022 9:21:44 AM,1004,49.8424,-97.1214,6.12963249859469,False,1,19,49.8424,-97.1214,6.96256118541945,7.89052518345661,1.88863980429508,1.62761449032617,0,0,0,,0044
14,False,'00:22:44,0.393160794568183,0.595525531989938,9.15704789334088,4440.22492891268,7.64101373106635,-78.3509695113244,OUT,St Vital Park_OUT,9/24/2022 9:05:00 AM,Manitoba Canoe & Kayak Center,9/24/2022 9:58:51 AM,9/24/2022 9:27:44 AM,1364,49.8497,-97.1263,6.36406017289975,False,1,22,49.8497,-97.1263,6.49369715393762,7.89052518345661,2.56811812078781,2.22875238470075,0,0,0,,0044
16,False,'00:28:44,0.494140969769304,0.0752513060991895,11.5089616990147,5501.74887674016,7.55339053083059,-24.8917808818459,OUT,St Vital Park_OUT,9/24/2022 9:05:00 AM,Manitoba Canoe & Kayak Center,9/24/2022 9:59:58 AM,9/24/2022 9:33:44 AM,1724,49.8511,-97.1388,6.07027607740565,False,1,26,49.8511,-97.1388,6.61221696963263,7.89052518345661,3.22771852183786,2.84225671558278,0,0,0,,0044
18,False,'00:34:44,0.597190856914871,0.800952263543281,13.9090808488189,6585.03005354608,7.48478941948416,-85.0212875495936,OUT,St Vital Park_OUT,9/24/2022 9:05:00 AM,Manitoba Canoe & Kayak Center,9/24/2022 10:00:49 AM,9/24/2022 9:39:44 AM,2084,49.8547,-97.1408,5.91629625129813,False,1,31,49.8547,-97.1408,6.92860197694903,7.89052518345661,3.90083823819801,3.40539935947033,0,0,0,,0044
20,False,'00:40:45,0.696243427070246,0.362237936708693,16.2160991003908,7626.29062874683,7.39844346682035,-124.647078493369,OUT,St Vital Park_OUT,9/24/2022 9:05:00 AM,Manitoba Canoe & Kayak Center,9/24/2022 10:01:50 AM,9/24/2022 9:45:45 AM,2445,49.8561,-97.1267,6.53003813643481,False,1,34,49.8561,-97.1267,6.72302685043687,7.89052518345661,4.54784756324024,4.04212086885443,0,0,0,,0044
22,False,'00:46:44,0.793549807203044,0.520724309357841,18.4824471073997,8649.19490259704,7.31272324038566,-150.832981985826,OUT,St Vital Park_OUT,9/24/2022 9:05:00 AM,Manitoba Canoe & Kayak Center,9/24/2022 10:02:47 AM,9/24/2022 9:51:44 AM,2804,49.8616,-97.1164,6.08235184069273,False,1,36,49.8616,-97.1164,6.37167590300638,7.89052518345661,5.1834508114272,4.65002107150336,0,0,0,,0044
24,False,'00:52:44,0.898830845929007,0.662007163639009,20.934531667187,9755.93039436237,7.277026283684,-230.759524117105,OUT,St Vital Park_OUT,9/24/2022 9:05:00 AM,Manitoba Canoe & Kayak Center,9/24/2022 10:03:10 AM,9/24/2022 9:57:44 AM,3164,49.8697,-97.1159,5.82194725406703,False,1,39,49.8697,-97.1159,7.3429681314993,7.89052518345661,5.8711443634368,5.24544088753284,0,0,0,,0044
26,True,'00:58:44,0.992035854101873,0.781277797848591,23.1053552475889,10735.7202197999,7.17705281874191,138.138026644137,IN,Manitoba Canoe & Kayak Center_IN,9/24/2022 10:04:10 AM,Royal Manitoba Yacht Club,9/24/2022 11:38:26 AM,9/24/2022 10:03:44 AM,3524,49.8703,-97.1285,5.93379257947598,True,2,43,49.8703,-97.1285,5.95104769730527,7.89052518345661,6.4799575354109,5.81727058900895,0,0,0,,0044
28,False,'01:04:40,1.05516413552111,0.0322819638602107,25.5090990588654,11820.6373685306,7.14705431434425,184.183345097653,OUT,Manitoba Canoe & Kayak Center_OUT,9/24/2022 10:04:17 AM,Royal Manitoba Yacht Club,9/24/2022 11:39:07 AM,9/24/2022 10:09:40 AM,3880,49.8751,-97.1367,5.76936213720316,False,2,52,49.8751,-97.1367,6.74348625482384,7.89052518345661,7.15409379759643,6.39599622883424,0,0,0,,0044
30,False,'01:10:43,1.11145574400138,0.874567876342975,27.7726889438223,12842.2967784737,7.07461585014963,-184.016724252705,OUT,Manitoba Canoe & Kayak Center_OUT,9/24/2022 10:04:17 AM,Royal Manitoba Yacht Club,9/24/2022 11:40:42 AM,9/24/2022 10:15:43 AM,4243,49.8832,-97.1307,6.06952422644483,False,2,54,49.8832,-97.1307,6.05461460496023,7.89052518345661,7.78892352321327,7.02004488855214,0,0,0,,0044
32,False,'01:16:40,1.16917272940329,0.590989232244989,30.0935958760124,13889.8259367511,7.03259228918914,-13.1488547946546,OUT,Manitoba Canoe & Kayak Center_OUT,9/24/2022 10:04:17 AM,Royal Manitoba Yacht Club,9/24/2022 11:41:36 AM,9/24/2022 10:21:40 AM,4600,49.8913,-97.1273,6.23811113376401,False,2,58,49.8913,-97.1273,6.82404894759991,7.89052518345661,8.43982796519549,7.63026931945267,0,0,0,,0044
34,False,'01:22:40,1.22774598979202,0.277340587647,32.4489352120937,14952.8959797428,6.9966219221094,84.3023831969437,OUT,Manitoba Canoe & Kayak Center_OUT,9/24/2022 10:04:17 AM,Royal Manitoba Yacht Club,9/24/2022 11:42:21 AM,9/24/2022 10:27:40 AM,4960,49.8994,-97.1287,5.37516502428953,False,2,63,49.8994,-97.1287,6.51968483370007,7.89052518345661,9.100389065241,8.23141116333646,0,0,0,,0044
36,False,'01:28:41,1.28267086280069,0.507726974758132,34.6575661311861,15949.7499489966,6.927193183354,-46.0291616616125,OUT,Manitoba Canoe & Kayak Center_OUT,9/24/2022 10:04:17 AM,Royal Manitoba Yacht Club,9/24/2022 11:43:45 AM,9/24/2022 10:33:41 AM,5321,49.9007,-97.1156,5.871581683138,False,2,66,49.9007,-97.1156,5.9108066549375,7.89052518345661,9.71980540460275,8.82871344344414,0,0,0,,0044
38,False,'01:34:40,1.34296376901529,0.669804759305265,37.082055612418,17044.0305469397,6.91833133500311,-7.45330834040714,OUT,Manitoba Canoe & Kayak Center_OUT,9/24/2022 10:04:17 AM,Royal Manitoba Yacht Club,9/24/2022 11:43:55 AM,9/24/2022 10:39:40 AM,5680,49.9054,-97.1132,5.4262060810256,False,2,71,49.9054,-97.1132,6.94463877872579,7.89052518345661,10.3997598443889,9.3820742489213,0,0,0,,0044
40,False,'01:40:40,1.3941975517947,0.384748805680633,39.1422609538271,17973.8934109919,6.82287578146111,64.4722717342638,OUT,Manitoba Canoe & Kayak Center_OUT,9/24/2022 10:04:17 AM,Royal Manitoba Yacht Club,9/24/2022 11:45:44 AM,9/24/2022 10:45:40 AM,6040,49.9104,-97.1234,5.81156969317302,False,2,73,49.9104,-97.1234,5.88741205309544,7.89052518345661,10.9775498408422,9.95322198138554,0,0,0,,0044
42,False,'01:46:40,1.45042168128676,0.167120707828465,41.4031373836298,18994.3281171977,6.78270235747297,163.44544250774,OUT,Manitoba Canoe & Kayak Center_OUT,9/24/2022 10:04:17 AM,Royal Manitoba Yacht Club,9/24/2022 11:46:29 AM,9/24/2022 10:51:40 AM,6400,49.918,-97.1241,5.77976909160248,False,2,77,49.918,-97.1241,6.48849481833094,7.89052518345661,11.6116185708377,10.5305051029916,0,0,0,,0044
44,False,'01:52:49,1.50743027120032,0.12552068140495,43.6955584205813,20029.0003162201,6.73885181749596,-158.499085221746,OUT,Manitoba Canoe & Kayak Center_OUT,9/24/2022 10:04:17 AM,Royal Manitoba Yacht Club,9/24/2022 11:47:16 AM,9/24/2022 10:57:49 AM,6769,49.9229,-97.1129,5.8106533690872,False,2,81,49.9229,-97.1129,6.2743852927293,7.89052518345661,12.254534068719,11.1350518517855,0,0,0,,0044
46,False,'01:58:49,1.55928083158527,0.754618496733651,45.7805655323935,20970.0573291258,6.66355198269051,-0.929476021187656,OUT,Manitoba Canoe & Kayak Center_OUT,9/24/2022 10:04:17 AM,Royal Manitoba Yacht Club,9/24/2022 11:48:34 AM,9/24/2022 11:03:49 AM,7129,49.9307,-97.1107,5.40436362199323,False,2,83,49.9307,-97.1107,5.5579615597069,7.89052518345661,12.8392797867915,11.6951317415721,0,0,0,,0044
48,False,'02:04:49,1.61554241504543,0.000490484260349204,48.0429480556559,21991.1718027071,6.63688042164905,188.951606397649,OUT,Manitoba Canoe & Kayak Center_OUT,9/24/2022 10:04:17 AM,Royal Manitoba Yacht Club,9/24/2022 11:49:00 AM,9/24/2022 11:09:49 AM,7489,49.9382,-97.1064,5.58738266203646,False,2,87,49.9382,-97.1064,6.37505574214158,7.89052518345661,13.4737709046516,12.2785147745524,0,0,0,,0044
50,False,'02:10:50,1.67133068379308,0.64953641553694,50.2862977172792,23003.6958941168,6.60701998706811,-137.158400264045,OUT,Manitoba Canoe & Kayak Center_OUT,9/24/2022 10:04:17 AM,Royal Manitoba Yacht Club,9/24/2022 11:49:29 AM,9/24/2022 11:15:50 AM,7850,49.9437,-97.0969,5.77397154456024,False,2,90,49.9437,-97.0969,6.62467267559226,7.89052518345661,14.1029242064998,12.8606095532699,0,0,0,,0044
52,False,'02:16:49,1.72569194595172,0.0180145321494528,52.4722647997247,23990.320659693,6.56927368629683,180.500088401094,OUT,Manitoba Canoe & Kayak Center_OUT,9/24/2022 10:04:17 AM,Royal Manitoba Yacht Club,9/24/2022 11:50:04 AM,9/24/2022 11:21:49 AM,8209,49.9511,-97.095,5.21207581607115,False,2,96,49.9511,-97.095,6.51655893207879,7.89052518345661,14.7159844133768,13.3987558424648,0,0,0,,0044
54,False,'02:22:49,1.78196171651565,0.478292096972557,54.7349765416001,25011.5837243669,6.55074401526753,-51.5746777486837,OUT,Manitoba Canoe & Kayak Center_OUT,9/24/2022 10:04:17 AM,Royal Manitoba Yacht Club,9/24/2022 11:50:20 AM,9/24/2022 11:27:49 AM,8569,49.953,-97.0821,5.91715919790858,False,2,99,49.953,-97.0821,6.46124616709157,7.89052518345661,15.3505678614611,13.9930402589045,0,0,0,,0044
56,False,'02:28:50,1.83396326479881,0.966239011719064,56.8260551565794,25955.3810783496,6.49145152912592,-83.4860247289163,OUT,Manitoba Canoe & Kayak Center_OUT,9/24/2022 10:04:17 AM,Royal Manitoba Yacht Club,9/24/2022 11:51:08 AM,9/24/2022 11:33:50 AM,8930,49.9596,-97.074,5.72182081976618,False,2,100,49.9596,-97.074,5.73627234832848,7.89052518345661,15.9370163485358,14.5756693875329,0,0,0,,0044
58,False,'02:34:49,1.88292708573315,0.0861434735272055,58.7949811259742,26844.0454770915,6.41164367986703,3.28289053213158,OUT,Manitoba Canoe & Kayak Center_OUT,9/24/2022 10:04:17 AM,Royal Manitoba Yacht Club,9/24/2022 11:52:10 AM,9/24/2022 11:39:49 AM,9289,49.9664,-97.0676,5.53906395565599,False,2,102,49.9664,-97.0676,5.54157746034,7.89052518345661,16.489206805481,15.1259828566883,0,0,0,,0044
60,False,'02:40:49,1.93412471071534,0.94499013162922,60.853732495357,27773.2520985035,6.35814712950986,61.83423800411,OUT,Manitoba Canoe & Kayak Center_OUT,9/24/2022 10:04:17 AM,Royal Manitoba Yacht Club,9/24/2022 11:52:49 AM,9/24/2022 11:45:49 AM,9649,49.9741,-97.0627,5.77994873641507,False,2,104,49.9741,-97.0627,5.77519422910716,7.89052518345661,17.0665890316626,15.7019560162404,0,0,0,,0044
62,True,'02:46:49,1.98642169664689,0.96312103820355,62.9566912056216,28722.4114711187,6.31947006628779,-38.71229040743,IN,Royal Manitoba Yacht Club_IN,9/24/2022 11:53:16 AM,River Bank Fishing Access Park,9/24/2022 12:44:26 PM,9/24/2022 11:51:49 AM,10009,49.9814,-97.0562,5.80453621599604,True,3,106,49.9814,-97.0562,5.8627366138766,7.89052518345661,17.6563693226477,16.2868774654964,0,0,0,,0044
64,True,'02:52:50,2.08118270944753,0.492370680171576,65.0628801474215,29673.0287917774,6.28333380040719,107.027756766927,OUT,Royal Manitoba Yacht Club_OUT,9/24/2022 11:53:39 AM,River Bank Fishing Access Park,9/24/2022 12:45:07 PM,9/24/2022 11:57:50 AM,10370,49.9887,-97.0499,5.81235465940964,False,3,109,49.9887,-97.0499,5.85958660896663,7.89052518345661,18.2470555405469,16.8682768026163,0,0,0,,0044
66,False,'02:58:49,2.19776072816066,0.729874287097951,67.3032921537899,30684.2269879115,6.28486950123327,-189.08295017412,OUT,Royal Manitoba Yacht Club_OUT,9/24/2022 11:53:39 AM,River Bank Fishing Access Park,9/24/2022 12:45:05 PM,9/24/2022 12:03:49 PM,10729,49.9951,-97.0415,5.84232271022406,False,3,112,49.9951,-97.0415,6.34166746828154,7.89052518345661,18.8753849692669,17.4492648398551,0,0,0,,0044
68,False,'03:04:49,2.30744785942115,0.838949907900092,69.4112741604565,31635.6535989836,6.25302931771814,-111.412497785784,OUT,Royal Manitoba Yacht Club_OUT,9/24/2022 11:53:39 AM,River Bank Fishing Access Park,9/24/2022 12:45:37 PM,9/24/2022 12:09:49 PM,11089,50.0032,-97.0409,5.55149144908725,False,3,114,50.0032,-97.0409,5.60943039651258,7.89052518345661,19.4665740569152,18.0135836043467,0,0,0,,0044
70,False,'03:10:49,2.40830382814166,0.448735116085111,71.3495377004415,32510.4786711998,6.18453318686538,45.4194662039128,OUT,Royal Manitoba Yacht Club_OUT,9/24/2022 11:53:39 AM,River Bank Fishing Access Park,9/24/2022 12:46:45 PM,9/24/2022 12:15:49 PM,11449,50.011,-97.0415,5.40813814982337,False,3,116,50.011,-97.0415,5.4586989552439,7.89052518345661,20.0101651550373,18.5537742443834,0,0,0,,0044
72,False,'03:16:49,2.51051346839806,0.188743173997512,73.3138162816424,33397.0454956808,6.1277246042092,165.453689655378,OUT,Royal Manitoba Yacht Club_OUT,9/24/2022 11:53:39 AM,River Bank Fishing Access Park,9/24/2022 12:47:38 PM,9/24/2022 12:21:49 PM,11809,50.0188,-97.0419,5.26604004999927,False,3,118,50.0188,-97.0419,5.43505638877466,7.89052518345661,20.5610522397631,19.0935989758322,0,0,0,,0044
74,False,'03:23:49,2.64048487398267,0.166576950761862,75.8116241940662,34524.4179825952,6.11456849615348,154.095314232671,OUT,Royal Manitoba Yacht Club_OUT,9/24/2022 11:53:39 AM,River Bank Fishing Access Park,9/24/2022 12:47:49 PM,9/24/2022 12:28:49 PM,12229,50.0265,-97.033,5.66445763201669,False,3,121,50.0265,-97.033,5.65884925607587,7.89052518345661,21.2615690260527,19.7570523919554,0,0,0,,0044
76,False,'03:29:49,2.75657107899186,0.424103880159084,78.0425844586795,35531.3501847131,6.12707601353328,214.770184761625,OUT,Royal Manitoba Yacht Club_OUT,9/24/2022 11:53:39 AM,River Bank Fishing Access Park,9/24/2022 12:47:39 PM,9/24/2022 12:34:49 PM,12589,50.0322,-97.0242,5.6276547274077,False,3,123,50.0322,-97.0242,6.57187041507568,7.89052518345661,21.8872476889848,20.3220180161122,0,0,0,,0044
78,False,'03:35:49,2.86527133351691,0.374695072143273,80.1316005358226,36474.2166230725,6.10477743085872,-145.490647327779,OUT,Royal Manitoba Yacht Club_OUT,9/24/2022 11:53:39 AM,River Bank Fishing Access Park,9/24/2022 12:47:57 PM,9/24/2022 12:40:49 PM,12949,50.0329,-97.0115,5.8137688789923,False,3,125,50.0329,-97.0115,5.97423879717091,7.89052518345661,22.4731177319087,20.888436314964,0,0,0,,0044
80,True,'03:41:49,2.97774309899069,0.950122948354279,82.2930980164496,37449.7971623418,6.10096448652343,151.926890997652,IN,River Bank Fishing Access Park_IN,9/24/2022 12:48:00 PM,Half Moon Drive In,9/24/2022 1:35:39 PM,9/24/2022 12:46:49 PM,13309,50.0376,-97.0014,5.77747754483045,True,4,127,50.0376,-97.0014,5.94068073228813,7.89052518345661,23.0793153747181,21.4517994757116,0,0,0,,0044
82,False,'03:47:49,3.11681977519513,0.578426522463671,84.7393823994325,38553.9147747594,6.16392451350942,-181.816379552813,OUT,River Bank Fishing Access Park_OUT,9/24/2022 12:48:00 PM,Half Moon Drive In,9/24/2022 1:34:28 PM,9/24/2022 12:52:49 PM,13669,50.0407,-96.9891,5.76552651230777,False,4,132,50.0407,-96.9891,6.44581296347537,7.89052518345661,23.7653822519163,22.0394545860123,0,0,0,,0044
84,False,'03:53:49,3.2360537295746,0.849162040407515,86.7996456749046,39483.8037870468,6.13064976443257,111.454392293232,OUT,River Bank Fishing Access Park_OUT,9/24/2022 12:48:00 PM,Half Moon Drive In,9/24/2022 1:35:02 PM,9/24/2022 12:58:49 PM,14029,50.0482,-96.9874,5.2660721112614,False,4,134,50.0482,-96.9874,5.28290341584057,7.89052518345661,24.3431884961297,22.5719445701849,0,0,0,,0044
86,False,'03:59:49,3.35305482424757,0.756335517472287,88.8213269971358,40396.2790373076,6.09198611518524,160.077244813623,OUT,River Bank Fishing Access Park_OUT,9/24/2022 12:48:00 PM,Half Moon Drive In,9/24/2022 1:35:41 PM,9/24/2022 1:04:49 PM,14389,50.0557,-96.9848,5.46176230927207,False,4,136,50.0557,-96.9848,5.6625151821735,7.89052518345661,24.9101743302712,23.1143950533613,0,0,0,,0044
88,False,'04:05:49,3.46815582688182,0.970283798125175,90.8101763138552,41293.93573426,6.04868258989653,235.652573808938,OUT,River Bank Fishing Access Park_OUT,9/24/2022 12:48:00 PM,Half Moon Drive In,9/24/2022 1:36:22 PM,9/24/2022 1:10:49 PM,14749,50.0625,-96.9785,5.38801069948224,False,4,137,50.0625,-96.9785,5.48354675243067,7.89052518345661,25.4679523422764,23.661782017691,0,0,0,,0044
90,False,'04:11:49,3.59630158823225,0.413046198015651,93.0244281802107,42293.326688549,6.06186697474867,-155.88555581356,OUT,River Bank Fishing Access Park_OUT,9/24/2022 12:48:00 PM,Half Moon Drive In,9/24/2022 1:36:10 PM,9/24/2022 1:16:49 PM,15109,50.0648,-96.9667,5.91025418494974,False,4,140,50.0648,-96.9667,6.02463861084992,7.89052518345661,26.0889450910542,24.2218260658065,0,0,0,,0044
92,False,'04:17:49,3.72670026040535,0.632600235139461,95.2776084663693,43310.2877807285,6.0831018516269,-218.044862238837,OUT,River Bank Fishing Access Park_OUT,9/24/2022 12:48:00 PM,Half Moon Drive In,9/24/2022 1:35:52 PM,9/24/2022 1:22:49 PM,15469,50.0685,-96.9549,5.92999781863283,False,4,142,50.0685,-96.9549,6.13325432320099,7.89052518345661,26.7208554173607,24.8134941139969,0,0,0,,0044
94,False,'04:23:49,3.85227711624762,0.658564425458856,97.4474717883361,44289.644198563,6.08297878234138,224.029440058772,OUT,River Bank Fishing Access Park_OUT,9/24/2022 12:48:00 PM,Half Moon Drive In,9/24/2022 1:35:52 PM,9/24/2022 1:28:49 PM,15829,50.0753,-96.948,5.65792352413126,False,4,145,50.0753,-96.948,5.91178225637706,7.89052518345661,27.3293992823358,25.3769175863334,0,0,0,,0044
96,True,'04:30:41,3.98176172250675,0.979569221383307,100,45299.4766179216,6.21654591014089,18.9794104567858,FINISH,Half Moon Drive In_FINISH,9/24/2022 1:35:41 PM,Half Moon Drive In,9/24/2022 1:35:41 PM,9/24/2022 1:34:49 PM,16189,50.0808,-96.9376,6.04311795598993,True,4,148,50.0808,-96.9376,6.05646768573551,7.89052518345661,28.0452625201991,25.9751648520922,0,0,0,,0044
98,False,'04:30:41,3.98176172250675,0.979569221383307,100,45299.4766179216,6.21654591014089,18.9794104567858,FINISH,Half Moon Drive In_FINISH,9/24/2022 1:35:41 PM,Half Moon Drive In,9/24/2022 1:35:41 PM,9/24/2022 1:40:49 PM,16549,50.082,-96.9362,0.169376056170854,True,4,148,50.0808,-96.9376,6.05646768573551,7.89052518345661,28.0452625201991,25.9751648520922,0,0,0,race finished(3),0044
100,False,'04:30:41,3.98176172250675,0.979569221383307,100,45299.4766179216,6.21654591014089,18.9794104567858,FINISH,Half Moon Drive In_FINISH,9/24/2022 1:35:41 PM,Half Moon Drive In,9/24/2022 1:35:41 PM,9/24/2022 2:10:30 PM,18330,50.0818,-96.9362,0.590509720410767,True,4,148,50.0808,-96.9376,6.05646768573551,7.89052518345661,28.0452625201991,25.9751648520922,0,0,0,race finished(3),0044
102,False,'04:30:41,3.98176172250675,0.979569221383307,100,45299.4766179216,6.21654591014089,18.9794104567858,FINISH,Half Moon Drive In_FINISH,9/24/2022 1:35:41 PM,Half Moon Drive In,9/24/2022 1:35:41 PM,9/24/2022 2:28:29 PM,19409,50.0822,-96.9361,0.778883618955033,True,4,148,50.0808,-96.9376,6.05646768573551,7.89052518345661,28.0452625201991,25.9751648520922,0,0,0,race finished(3),0044
104,False,'04:30:41,3.98176172250675,0.979569221383307,100,45299.4766179216,6.21654591014089,18.9794104567858,FINISH,Half Moon Drive In_FINISH,9/24/2022 1:35:41 PM,Half Moon Drive In,9/24/2022 1:35:41 PM,9/24/2022 2:34:29 PM,19769,50.0817,-96.9355,0.561132618777298,True,4,148,50.0808,-96.9376,6.05646768573551,7.89052518345661,28.0452625201991,25.9751648520922,0,0,0,race finished(3),0044
106,False,'04:30:41,3.98176172250675,0.979569221383307,100,45299.4766179216,6.21654591014089,18.9794104567858,FINISH,Half Moon Drive In_FINISH,9/24/2022 1:35:41 PM,Half Moon Drive In,9/24/2022 1:35:41 PM,9/24/2022 2:40:29 PM,20129,50.0818,-96.9361,0.138502457605829,True,4,148,50.0808,-96.9376,6.05646768573551,7.89052518345661,28.0452625201991,25.9751648520922,0,0,0,race finished(3),0044
